Location: Paimpol
(48.7798°N, 3.0488°W)
Time: 19:53:15
(UTC+02:00)

X-37B - Visible Passes

Search period start: 22 June 2021 00:00
Search period end: 02 July 2021 00:00
Orbit: 386 x 389 km, 45.0° (Epoch: 10 June)

Date Brightness Start Highest point End Pass type
(mag) Time Alt. Az. Time Alt. Az. Time Alt. Az.
22 Jun 1.7 03:43:04 27° SSE 03:43:04 27° SSE 03:45:03 10° SE visible
22 Jun 2.5 05:16:33 10° WSW 05:18:12 13° SSW 05:19:51 10° S visible
22 Jun 2.5 23:29:52 10° S 23:31:23 13° SSE 23:31:23 13° SSE visible
23 Jun 2.9 04:22:08 12° SSE 04:22:08 12° SSE 04:22:27 10° SSE visible
24 Jun 1.6 00:06:35 10° SW 00:09:20 26° SSE 00:10:08 23° SE visible
24 Jun 2.0 23:08:46 10° SSW 23:11:09 19° SSE 23:13:31 10° ESE visible
25 Jun 1.0 00:44:20 10° WSW 00:47:20 39° S 00:47:29 39° SSE visible
25 Jun 1.3 23:46:09 10° SW 23:49:05 34° SSE 23:51:53 11° ESE visible
26 Jun 1.9 01:22:24 10° WSW 01:24:10 26° SW 01:24:10 26° SW visible
27 Jun 1.0 00:24:06 10° WSW 00:27:08 42° S 00:28:17 28° SE visible
27 Jun 1.1 23:25:51 10° WSW 23:28:51 40° S 23:31:52 10° ESE visible
28 Jun 1.6 01:02:16 10° WSW 01:04:33 30° SW 01:04:33 30° SW visible
29 Jun 1.1 00:03:56 10° WSW 00:06:56 39° S 00:08:29 23° SE visible
29 Jun 1.1 23:05:37 10° WSW 23:08:40 42° S 23:11:42 10° ESE visible
30 Jun 1.8 00:42:12 10° WSW 00:44:39 26° SSW 00:44:39 26° SSW visible
30 Jun 1.4 23:43:48 10° WSW 23:46:43 33° SSW 23:48:33 18° SE visible
